DW5963 Weather Reports


time (UTC)temp
C
wind
direction
speed
KPH
gust
KPH
rain 1hr
cm
rain 24hr
cm
rain mn
cm
humidity
%
barometer
mb
20260903222511 27 360 6.4 0.0 0.00 0.00 0.00 50 1004.3
20260903222013 27 360 8.0 0.0 0.00 0.00 0.00 51 1004.3
20260903221525 27 360 8.0 0.0 0.00 0.00 0.00 51 1004.1
20260903221013 27 360 9.7 0.0 0.00 0.00 0.00 51 1004.1
20260903220510 27 360 8.0 0.0 0.00 0.00 0.00 52 1004.2
20260903220010 27 360 8.0 0.0 0.00 0.00 0.00 52 1004.1
20260903215511 27 360 8.0 0.0 0.00 0.00 0.00 52 1004.0
20260903215010 27 360 9.7 0.0 0.00 0.00 0.00 51 1004.0
20260903214510 28 360 9.7 0.0 0.00 0.00 0.00 52 1004.0
20260903213510 27 360 9.7 0.0 0.00 0.00 0.00 51 1004.0
20260903213018 28 360 8.0 0.0 0.00 0.00 0.00 51 1004.0
20260903212509 28 360 8.0 0.0 0.00 0.00 0.00 52 1003.9
20260903212011 28 360 6.4 0.0 0.00 0.00 0.00 50 1003.9
20260903211509 28 360 4.8 0.0 0.00 0.00 0.00 47 1003.9
20260903211008 28 360 3.2 0.0 0.00 0.00 0.00 48 1003.8
20260903210508 28 360 3.2 0.0 0.00 0.00 0.00 49 1003.8
20260903210011 28 360 4.8 0.0 0.00 0.00 0.00 48 1003.8
20260903205510 28 360 6.4 0.0 0.00 0.00 0.00 48 1003.8
20260903205006 28 360 6.4 0.0 0.00 0.00 0.00 49 1003.8
20260903204507 28 360 4.8 0.0 0.00 0.00 0.00 50 1003.8
20260903203507 27 360 3.2 0.0 0.00 0.00 0.00 50 1004.0
20260903203006 27 360 4.8 0.0 0.00 0.00 0.00 50 1004.1
20260903202503 28 360 4.8 0.0 0.00 0.00 0.00 52 1004.2
20260903202003 27 360 3.2 0.0 0.00 0.00 0.00 53 1004.3
20260903201503 27 360 3.2 0.0 0.00 0.00 0.00 55 1004.3
20260903201059 27 360 3.2 0.0 0.00 0.00 0.00 55 1004.4
20260903200559 26 360 4.8 0.0 0.00 0.00 0.00 55 1004.3
20260903200059 27 360 3.2 0.0 0.00 0.00 0.00 55 1004.2
20260903195601 26 360 4.8 0.0 0.00 0.00 0.00 56 1004.2
20260903195057 26 360 6.4 0.0 0.00 0.00 0.00 57 1004.3
20260903194557 26 360 6.4 0.0 0.00 0.00 0.00 57 1004.3
20260903193558 26 360 6.4 0.0 0.00 0.00 0.00 59 1004.1
20260903193056 26 360 4.8 0.0 0.00 0.00 0.00 60 1004.0
20260903192555 25 360 3.2 0.0 0.00 0.00 0.00 60 1004.2
20260903192053 25 360 4.8 0.0 0.00 0.00 0.00 62 1004.4
20260903191552 25 188 4.8 0.0 0.00 0.00 0.00 64 1004.4
20260903191051 24 360 4.8 0.0 0.00 0.00 0.00 64 1004.5
20260903190553 23 88 4.8 0.0 0.00 0.00 0.00 64 1004.5
20260903190051 23 234 4.8 0.0 0.00 0.00 0.00 64 1004.6
20260903185550 23 237 6.4 0.0 0.00 0.00 0.00 65 1004.6
20260903185052 23 181 8.0 0.0 0.00 0.00 0.00 66 1004.5
20260903184550 23 360 6.4 0.0 0.00 0.00 0.00 66 1004.5
20260903183550 23 188 6.4 0.0 0.00 0.00 0.00 65 1004.4
20260903183050 23 360 6.4 0.0 0.00 0.00 0.00 65 1004.4
20260903182550 24 123 6.4 0.0 0.00 0.00 0.00 65 1004.5
20260903182049 24 360 8.0 0.0 0.00 0.00 0.00 65 1004.4
20260903181549 24 103 11.3 0.0 0.00 0.00 0.00 65 1004.5
20260903181048 23 136 11.3 0.0 0.00 0.00 0.00 66 1004.7
20260903180548 23 167 9.7 0.0 0.00 0.00 0.00 66 1004.7
20260903180110 23 174 9.7 0.0 0.00 0.00 0.00 67 1004.6
20260903175547 23 182 9.7 0.0 0.00 0.00 0.00 68 1004.7
20260903175044 23 188 9.7 0.0 0.00 0.00 0.00 69 1004.8
20260903174544 22 360 11.3 0.0 0.00 0.00 0.00 69 1004.8
20260903173543 22 173 11.3 0.0 0.00 0.00 0.00 69 1004.9
20260903173043 22 180 11.3 0.0 0.00 0.00 0.00 69 1005.1
20260903172542 22 360 12.9 0.0 0.00 0.00 0.00 69 1005.1
20260903172042 22 360 11.3 0.0 0.00 0.00 0.00 69 1005.4
20260903171548 22 360 9.7 0.0 0.00 0.00 0.00 70 1005.6
20260903171040 22 171 9.7 0.0 0.00 0.00 0.00 69 1005.4
20260903170541 22 360 9.7 0.0 0.00 0.00 0.00 70 1005.1
20260903170041 22 360 8.0 0.0 0.00 0.00 0.00 70 1004.9
20260903165544 22 95 6.4 0.0 0.00 0.00 0.00 69 1004.7
20260903165044 22 186 6.4 0.0 0.00 0.00 0.00 69 1005.4
20260903164545 22 360 6.4 0.0 0.00 0.00 0.00 71 1005.1
20260903163540 21 360 8.0 0.0 0.00 0.00 0.00 71 1005.4
20260903163044 21 360 6.4 0.0 0.00 0.00 0.00 72 1005.4
20260903162543 21 360 6.4 0.0 0.00 0.00 0.00 74 1005.2
20260903162039 20 360 6.4 0.0 0.00 0.00 0.00 75 1005.4
20260903161538 20 360 6.4 0.0 0.00 0.00 0.00 75 1005.5
20260903161038 20 360 4.8 0.0 0.00 0.00 0.00 75 1005.6
20260903160539 20 360 3.2 0.0 0.00 0.00 0.00 75 1005.4
20260903160039 20 360 4.8 0.0 0.00 0.00 0.00 75 1005.4
20260903155542 20 360 4.8 0.0 0.00 0.00 0.00 75 1005.5
20260903155039 20 360 4.8 0.0 0.00 0.00 0.00 76 1005.5
20260903154538 20 360 6.4 0.0 0.00 0.00 0.00 75 1005.6
20260903153537 20 360 6.4 0.0 0.00 0.00 0.00 76 1005.4
20260903153037 20 360 3.2 0.0 0.00 0.00 0.00 77 1005.5
20260903152537 19 360 3.2 0.0 0.00 0.00 0.00 78 1005.2
20260903152042 19 360 4.8 0.0 0.00 0.00 0.00 79 1005.0
20260903151536 18 360 6.4 0.0 0.00 0.00 0.00 80 1004.7
20260903151037 18 360 6.4 0.0 0.00 0.00 0.00 80 1005.2
20260903150537 18 360 9.7 0.0 0.00 0.00 0.00 80 1005.4
20260903150038 18 360 9.7 0.0 0.00 0.00 0.00 80 1005.5
20260903145538 18 360 9.7 0.0 0.00 0.00 0.00 81 1005.3
20260903145036 18 360 14.5 0.0 0.00 0.00 0.00 82 1004.1
20260903144537 18 360 14.5 0.0 0.00 0.00 0.00 82 1003.8
20260903143535 18 360 11.3 0.0 0.00 0.00 0.00 82 1003.8
20260903143036 18 360 9.7 0.0 0.00 0.00 0.00 82 1004.1
20260903142536 18 360 12.9 0.0 0.00 0.00 0.00 82 1004.2
20260903142036 17 360 11.3 0.0 0.00 0.00 0.00 83 1003.7
20260903141536 17 360 8.0 0.0 0.00 0.00 0.00 84 1004.4
20260903141037 17 360 4.8 0.0 0.00 0.00 0.00 84 1004.6
20260903140539 17 360 3.2 0.0 0.00 0.00 0.00 84 1005.6
20260903140035 17 360 8.0 0.0 0.00 0.00 0.00 84 1006.1
20260903135534 17 360 8.0 0.0 0.00 0.00 0.00 85 1006.4
20260903135036 17 360 3.2 0.0 0.00 0.00 0.00 85 1005.4
20260903134533 17 360 1.6 0.0 0.00 0.00 0.00 84 1005.7
20260903133532 17 360 8.0 0.0 0.00 0.00 0.00 85 1005.9
20260903133032 17 360 9.7 0.0 0.00 0.00 0.00 86 1005.2
20260903132531 17 360 8.0 0.0 0.00 0.00 0.00 86 1004.8
20260903132031 17 360 6.4 0.0 0.00 0.00 0.00 87 1005.0
20260903131531 16 360 4.8 0.0 0.00 0.00 0.00 88 1005.1
20260903131031 16 360 1.6 0.0 0.00 0.00 0.00 89 1005.2
20260903130530 15 360 0.0 0.0 0.00 0.00 0.00 90 1005.4
20260903130031 15 360 1.6 0.0 0.00 0.00 0.00 89 1005.2
20260903125531 15 360 1.6 0.0 0.00 0.00 0.00 88 1005.0
20260903125028 15 360 3.2 0.0 0.00 0.00 0.00 87 1004.4
20260903124527 15 360 4.8 0.0 0.00 0.00 0.00 87 1004.2
20260903123527 15 360 1.6 0.0 0.00 0.00 0.00 86 1004.1
20260903123027 15 360 0.0 0.0 0.00 0.00 0.00 85 1004.1
20260903122526 15 360 0.0 0.0 0.00 0.00 0.00 84 1004.1
20260903122024 16 360 0.0 0.0 0.00 0.00 0.00 85 1004.0
20260903121524 16 360 1.6 0.0 0.00 0.00 0.00 85 1004.0
20260903121023 16 360 1.6 0.0 0.00 0.00 0.00 85 1004.1
20260903120523 16 360 1.6 0.0 0.00 0.00 0.00 85 1004.1
20260903120022 16 360 3.2 0.0 0.00 0.00 0.00 86 1004.0
20260903115522 16 360 6.4 0.0 0.00 0.00 0.00 86 1004.0
20260903115021 16 360 6.4 0.0 0.00 0.00 0.00 85 1004.0
20260903114521 16 360 4.8 0.0 0.00 0.00 0.00 85 1003.4
20260903113521 16 360 3.2 0.0 0.00 0.00 0.00 84 1003.9
20260903113032 16 360 3.2 0.0 0.00 0.00 0.00 84 1004.5
20260903112522 16 360 1.6 0.0 0.00 0.00 0.00 83 1004.5
20260903112023 16 360 3.2 0.0 0.00 0.00 0.00 83 1004.0
20260903111519 16 360 4.8 0.0 0.00 0.00 0.00 83 1003.5
20260903111019 16 360 6.4 0.0 0.00 0.00 0.00 83 1003.6
20260903110521 16 360 8.0 0.0 0.00 0.00 0.00 83 1003.6
20260903110039 16 360 8.0 0.0 0.00 0.00 0.00 83 1003.4
20260903105517 17 360 9.7 0.0 0.00 0.00 0.00 83 1003.5
20260903105018 17 360 14.5 0.0 0.00 0.00 0.00 83 1003.7
20260903104517 17 360 17.7 0.0 0.00 0.00 0.00 84 1003.5
20260903103520 17 360 20.9 0.0 0.00 0.00 0.00 84 1003.6
20260903103015 17 360 22.5 0.0 0.00 0.00 0.00 84 1003.6
20260903102514 17 360 22.5 0.0 0.00 0.00 0.00 83 1003.6
20260903102013 17 360 20.9 0.0 0.00 0.00 0.00 84 1003.6
20260903101513 17 360 17.7 0.0 0.00 0.00 0.00 84 1003.8
20260903101012 17 360 17.7 0.0 0.00 0.00 0.00 83 1003.4
20260903100511 17 360 17.7 0.0 0.00 0.00 0.00 83 1003.4
20260903100009 17 360 17.7 0.0 0.00 0.00 0.00 82 1003.5
20260903095508 17 360 17.7 0.0 0.00 0.00 0.00 81 1003.7
20260903095007 17 360 17.7 0.0 0.00 0.00 0.00 79 1003.7
20260903094520 18 360 16.1 0.0 0.00 0.00 0.00 75 1003.7
20260903093508 19 360 14.5 0.0 0.00 0.00 0.00 70 1003.5
20260903093006 19 360 14.5 0.0 0.00 0.00 0.00 69 1003.4
20260903092505 19 360 14.5 0.0 0.00 0.00 0.00 70 1003.5
20260903092005 19 360 11.3 0.0 0.00 0.00 0.00 71 1003.6
20260903091504 18 360 9.7 0.0 0.00 0.00 0.00 73 1003.8
20260903091004 18 360 9.7 0.0 0.00 0.00 0.00 74 1003.7
20260903090504 18 360 9.7 0.0 0.00 0.00 0.00 75 1003.6
20260903090004 18 360 11.3 0.0 0.00 0.00 0.00 76 1003.9
20260903085503 18 360 11.3 0.0 0.00 0.00 0.00 76 1004.0
20260903085003 18 360 11.3 0.0 0.00 0.00 0.00 76 1004.0
20260903084502 18 360 9.7 0.0 0.00 0.00 0.00 76 1004.2
20260903083501 18 360 9.7 0.0 0.00 0.00 0.00 75 1004.5
20260903083002 18 360 9.7 0.0 0.00 0.00 0.00 75 1004.6
20260903082600 18 360 9.7 0.0 0.00 0.00 0.00 75 1004.5
20260903082101 18 360 9.7 0.0 0.00 0.00 0.00 75 1004.5
20260903081612 18 360 9.7 0.0 0.00 0.00 0.00 75 1004.6
20260903081059 18 360 9.7 0.0 0.00 0.00 0.00 74 1004.5
20260903080600 18 360 14.5 0.0 0.00 0.00 0.00 74 1004.4
20260903080058 18 360 17.7 0.0 0.00 0.00 0.00 72 1004.6
20260903075557 19 360 16.1 0.0 0.00 0.00 0.00 71 1004.5
20260903075055 19 360 17.7 0.0 0.00 0.00 0.00 69 1004.5
20260903074605 20 360 17.7 0.0 0.00 0.00 0.00 67 1004.6
20260903073552 21 360 17.7 0.0 0.00 0.00 0.00 61 1004.8
20260903073050 22 360 12.9 0.0 0.00 0.00 0.00 60 1004.8
20260903072550 23 360 6.4 0.0 0.00 0.00 0.00 65 1004.8
20260903072050 23 360 4.8 0.0 0.00 0.00 0.00 65 1004.7
20260903071553 23 360 8.0 0.0 0.00 0.00 0.00 66 1004.8
20260903071049 23 360 14.5 0.0 0.00 0.00 0.00 66 1004.9
20260903070553 22 360 20.9 0.0 0.00 0.00 0.00 66 1004.9
20260903070050 22 360 16.1 0.0 0.00 0.00 0.00 68 1004.8
20260903065551 22 360 12.9 0.0 0.00 0.00 0.00 67 1004.5
20260903065049 22 360 14.5 0.0 0.00 0.00 0.00 67 1002.8
20260903064551 22 360 16.1 0.0 0.00 0.00 0.00 67 1002.9
20260903063550 22 360 17.7 0.0 0.00 0.00 0.00 68 1002.5
20260903063049 22 360 16.1 0.0 0.00 0.00 0.00 68 1002.3
20260903062553 22 360 16.1 0.0 0.00 0.00 0.00 68 1002.2
20260903062047 22 360 14.5 0.0 0.00 0.00 0.00 68 1002.1
20260903061553 22 360 16.1 0.0 0.00 0.00 0.00 67 1002.2
20260903061048 22 360 14.5 0.0 0.00 0.00 0.00 66 1002.3
20260903060548 22 360 14.5 0.0 0.00 0.00 0.00 66 1002.4
20260903060051 22 360 16.1 0.0 0.00 0.00 0.00 65 1002.7
20260903055547 22 360 16.1 0.0 0.00 0.00 0.00 65 1002.7
20260903055047 22 360 17.7 0.0 0.00 0.00 0.00 65 1002.8
20260903054550 22 360 16.1 0.0 0.00 0.00 0.00 65 1002.8
20260903053550 22 360 16.1 0.0 0.00 0.00 0.00 67 1002.9
20260903053104 22 360 17.7 0.0 0.00 0.00 0.00 67 1002.8
20260903052548 22 360 16.1 0.0 0.00 0.00 0.00 68 1002.6
20260903052050 22 360 14.5 0.0 0.00 0.00 0.00 68 1002.3
20260903051552 22 360 16.1 0.0 0.00 0.00 0.00 68 1002.2
20260903051046 22 360 14.5 0.0 0.00 0.00 0.00 68 1002.1
20260903050548 22 360 14.5 0.0 0.00 0.00 0.00 69 1002.3
20260903050045 22 360 14.5 0.0 0.00 0.00 0.00 69 1002.2
20260903045545 22 360 12.9 0.0 0.00 0.00 0.00 69 1002.4
20260903045043 22 360 12.9 0.0 0.00 0.00 0.00 68 1002.7
20260903044552 22 360 12.9 0.0 0.00 0.00 0.00 68 1002.9
20260903043545 22 360 12.9 0.0 0.00 0.00 0.00 68 1003.2
20260903043043 22 360 12.9 0.0 0.00 0.00 0.00 68 1003.3
20260903042544 22 360 12.9 0.0 0.00 0.00 0.00 68 1003.3
20260903042044 22 360 11.3 0.0 0.00 0.00 0.00 68 1003.5
20260903041543 22 360 11.3 0.0 0.00 0.00 0.00 68 1003.6
20260903041042 22 360 11.3 0.0 0.00 0.00 0.00 68 1003.7
20260903040543 22 360 11.3 0.0 0.00 0.00 0.00 67 1003.7
20260903040043 22 360 11.3 0.0 0.00 0.00 0.00 67 1003.7
20260903035542 22 360 9.7 0.0 0.00 0.00 0.00 67 1003.8
20260903035042 23 360 9.7 0.0 0.00 0.00 0.00 67 1003.9
20260903034542 23 360 11.3 0.0 0.00 0.00 0.00 66 1003.7
20260903033543 23 360 12.9 0.0 0.00 0.00 0.00 66 1003.8
20260903033041 23 360 12.9 0.0 0.00 0.00 0.00 65 1003.7
20260903032541 23 360 14.5 0.0 0.00 0.00 0.00 65 1003.7
20260903032040 23 360 14.5 0.0 0.00 0.00 0.00 65 1003.7
20260903031540 23 360 14.5 0.0 0.00 0.00 0.00 64 1003.7
20260903031040 23 360 14.5 0.0 0.00 0.00 0.00 64 1003.7
20260903030540 23 360 14.5 0.0 0.00 0.00 0.00 64 1003.6
20260903030044 23 360 12.9 0.0 0.00 0.00 0.00 64 1003.7
20260903025540 23 360 12.9 0.0 0.00 0.00 0.00 64 1003.8
20260903025040 23 360 12.9 0.0 0.00 0.00 0.00 64 1003.9
20260903024545 23 360 14.5 0.0 0.00 0.00 0.00 64 1003.7
20260903023542 24 120 16.1 0.0 0.00 0.00 0.00 62 1003.5
20260903023041 24 121 16.1 0.0 0.00 0.00 0.00 62 1003.5
20260903022540 25 115 16.1 0.0 0.00 0.00 0.00 62 1003.6
20260903022040 25 123 17.7 0.0 0.00 0.00 0.00 61 1003.8
20260903021546 25 114 17.7 0.0 0.00 0.00 0.00 61 1003.9
20260903021039 25 126 19.3 0.0 0.00 0.00 0.00 60 1003.9
20260903020540 25 116 19.3 0.0 0.00 0.00 0.00 60 1003.8
20260903020039 25 126 19.3 0.0 0.00 0.00 0.00 60 1003.6
20260903015540 25 121 20.9 0.0 0.00 0.00 0.00 60 1003.5
20260903015038 25 123 19.3 0.0 0.00 0.00 0.00 59 1003.5
20260903014543 25 128 19.3 0.0 0.00 0.00 0.00 59 1003.5
20260903013540 26 360 17.7 0.0 0.00 0.00 0.00 58 1003.6
20260903013040 26 360 17.7 0.0 0.00 0.00 0.00 58 1003.6
20260903012539 26 360 17.7 0.0 0.00 0.00 0.00 57 1003.6
20260903012039 26 360 19.3 0.0 0.00 0.00 0.00 57 1003.4
20260903011542 26 360 19.3 0.0 0.00 0.00 0.00 56 1003.4
20260903011039 27 360 19.3 0.0 0.00 0.00 0.00 55 1003.4
20260903010539 27 360 19.3 0.0 0.00 0.00 0.00 54 1003.3
20260903010039 27 360 19.3 0.0 0.00 0.00 0.00 54 1003.3
20260903005541 27 360 19.3 0.0 0.00 0.00 0.00 53 1003.3
20260903005038 27 360 19.3 0.0 0.00 0.00 0.00 52 1003.3
20260903004542 28 360 19.3 0.0 0.00 0.00 0.00 52 1003.3
20260903003537 28 360 20.9 0.0 0.00 0.00 0.00 51 1003.3
20260903003036 28 360 19.3 0.0 0.00 0.00 0.00 50 1003.2
20260903002537 28 360 17.7 0.0 0.00 0.00 0.00 50 1003.2
20260903002036 28 360 17.7 0.0 0.00 0.00 0.00 50 1003.3
20260903001536 28 360 17.7 0.0 0.00 0.00 0.00 50 1003.2
20260903001035 28 360 19.3 0.0 0.00 0.00 0.00 48 1003.3
20260903000535 29 360 22.5 0.0 0.00 0.00 0.00 47 1003.3
20260903000035 29 360 22.5 0.0 0.00 0.00 0.00 47 1003.3
20260902235535 29 360 20.9 0.0 0.00 0.00 0.00 47 1003.2
20260902235033 30 360 20.9 0.0 0.00 0.00 0.00 48 1003.4
20260902234533 30 360 20.9 0.0 0.00 0.00 0.00 48 1003.4
20260902233533 30 360 20.9 0.0 0.00 0.00 0.00 46 1003.6
20260902233037 30 360 20.9 0.0 0.00 0.00 0.00 45 1003.6
20260902232533 30 360 19.3 0.0 0.00 0.00 0.00 46 1003.7
20260902232032 30 360 19.3 0.0 0.00 0.00 0.00 46 1003.6
20260902231536 30 360 19.3 0.0 0.00 0.00 0.00 46 1003.7
20260902231034 30 360 19.3 0.0 0.00 0.00 0.00 46 1003.8
20260902230531 30 360 19.3 0.0 0.00 0.00 0.00 47 1003.8
20260902230031 29 360 19.3 0.0 0.00 0.00 0.00 46 1003.8
20260902225530 30 360 20.9 0.0 0.00 0.00 0.00 44 1003.8
20260902225031 30 360 22.5 0.0 0.00 0.00 0.00 44 1003.7
20260902224530 30 360 22.5 0.0 0.00 0.00 0.00 46 1003.7
20260902223530 30 360 20.9 0.0 0.00 0.00 0.00 43 1003.7
20260902223030 30 360 20.9 0.0 0.00 0.00 0.00 45 1003.7